Hourly Weather Roundup
Issued by NWS Central Illinois

Home | Current Version | Previous Version | Text Only | Print | Product List | Glossary On
Versions: 1 2 3 4 5 6 7 8 9 10 11 12 13 14 15 16 17 18 19 20 21 22 23 24 25 26 27 28 29 30 31 32 33 34 35 36 37 38 39 40 41 42 43 44 45 46 47 48 49 50
000
NZUS43 KILX 252010
HWRILX

Area Weather Roundup
National Weather Service Lincoln IL
300 PM CDT FRI MAY 25 2018

NOTE:  "FAIR" indicates few or no clouds below 12,000 feet, with
       no sigificant weather and/or obstructions to visibility.


CITY           SKY/WX    TMP DP  RH WIND       PRES   REMARKS
Bloomington    CLOUDY    88  61  40 S13G21    29.85F HX  88
Champaign      FAIR      90  55  30 SW8       29.85F HX  88
Danville       FAIR      89  57  33 S5        29.84F HX  88
Decatur        FAIR      88  61  40 S12       29.84F HX  88
Effingham      FAIR      89  64  41 S9        29.88F HX  90
Flora          FAIR      87  67  50 S10       29.88F HX  90
Galesburg      CLOUDY    71  65  83 CALM      29.87F THUNDER
Jacksonville   CLOUDY    85  66  52 S6        29.82F HX  87
Lacon          FAIR      75  68  78 W10       29.85S
Lawrenceville  FAIR      91  48  22 W6        29.87F HX  88
Litchfield     CLOUDY    87  66  50 S9G16     29.84F HX  89
$$


CITY           SKY/WX    TMP DP  RH WIND       PRES   REMARKS
Lincoln        FAIR      92  64  39 S6        29.83F HX  93
Macomb         CLOUDY    79  72  78 NE9       29.85F HX  83
Mattoon        FAIR      86  62  44 S8        29.85F HX  86
Mt Carmel AP   FAIR      89  57  34 S6        29.87F HX  87
Olney-Noble AP CLOUDY    86  57  37 S6        29.87F HX  84
Paris AP       FAIR      89  58  34 S14G20    29.88F HX  88
Peoria         PTSUNNY   73  68  84 W6        29.86F
Pontiac        PTSUNNY   89  56  32 SW8       29.84F HX  87
Rantoul        PTSUNNY   91  58  32 SW6G17    29.85F HX  90
Robinson       FAIR      88  56  33 CALM      29.89F HX  86
Springfield    PTSUNNY   89  65  44 S10       29.82F HX  91
Taylorville    PTSUNNY   87  65  47 S10       29.84F HX  88
$$

...REGIONAL REPORTS...


CITY           SKY/WX    TMP DP  RH WIND       PRES   REMARKS
Chicago O`Hare PTSUNNY   88  57  34 VRB7      29.83F HX  87
Kankakee       FAIR      88  54  31 S6G16     29.84F HX  86
La Salle       FAIR      80  64  57 W13       29.85S HX  81
Moline         CLOUDY    75  68  78 SE13G23   29.84S
Mount Sterling CLOUDY    81  68  65 W8        29.83F THUNDER HX  83
Mount Vernon   FAIR      90  69  50 SW10      29.86F HX  94
Pittsfield     RAIN      81  71  70 W6        29.84F HX  85
Quincy         LGT RAIN  72  65  78 SW12G22   29.84F
Rockford       CLOUDY    84  57  39 SW9       29.84F HX  83
$$


CITY           SKY/WX    TMP DP  RH WIND       PRES   REMARKS
Burlington     CLOUDY    84  68  58 W8        29.82F HX  87
Cedar Rapids   FAIR      85  67  54 SW13      29.80F HX  87
Des Moines     MOSUNNY   86  70  58 S8        29.78F HX  90
Kirksville     PTSUNNY   82  65  56 W9        29.85F HX  84
Ottumwa        MOSUNNY   84  68  58 SW10      29.81F HX  87
St Louis       CLOUDY    82  64  54 SW17      29.85F HX  83
$$


CITY           SKY/WX    TMP DP  RH WIND       PRES   REMARKS
Terre Haute    FAIR      89  55  31 S13       29.87F HX  87
Evansville     FAIR      87  65  47 S8        29.89F HX  89
Indianapolis   FAIR      87  56  34 S10       29.89F HX  85
Lafayette      FAIR      88  56  33 W9        29.86F HX  86
Madison        CLOUDY    83  65  54 SW7       29.80F HX  85
Milwaukee      PTSUNNY   88  61  40 SW15G21   29.82F HX  88
$$






USA.gov is the U.S. government's official web portal to all federal, state and local government web resources and services.